#timestamp,LO_Frequency,Hit,StdDev 
1523062815.2,286047002.8,N
1523062835.0,286047000.9,N
1523062835.9,286047000.9,N
1523062855.7,286047000.0,N
1523062875.6,286046998.3,N
1523062895.4,286047000.1,N
1523062915.3,286046998.4,N
1523062935.1,286046999.6,N
1523062955.8,286046999.0,N
1523062975.7,286046998.5,N
1523062995.5,286046996.5,N
1523063015.4,286046996.7,N
1523063035.2,286046998.7,N
1523063055.0,286046999.5,N
1523063055.9,286046999.5,N
1523063075.8,286047000.0,N
1523063095.6,286046999.9,N
1523063115.4,286046999.8,N
1523063135.3,286047000.0,N
1523063155.1,286047001.5,N
1523063175.9,286047000.4,N
1523063195.7,286046999.7,N
1523063215.5,286047000.9,N
1523063235.4,286047001.6,N
1523063255.2,286047001.6,N
1523063275.0,286047003.9,N
1523063275.9,286047003.9,N
1523063295.8,286047003.8,N
1523063315.6,286047001.6,N
1523063335.5,286047001.6,N
1523063355.3,286047001.9,N
1523063375.1,286047002.4,N
1523063395.9,286047002.7,N
1523063415.7,286047000.1,N
1523063435.6,286047000.5,N
1523063455.4,286047002.4,N
1523063475.2,286046999.3,N
1523063495.1,286047001.0,N
1523063496.0,286047001.0,N
1523063515.8,286046999.7,N
1523063535.6,286046999.9,N
1523063555.5,286047001.7,N
1523063575.3,286047004.2,Y
1523063595.2,286047001.8,P
1523063615.9,286047000.1,N
1523063635.7,286047000.1,N
1523063655.6,286046998.6,N
1523063675.4,286046998.2,N
1523063695.3,286046997.0,N
1523063715.1,286046998.7,N
1523063716.0,286046998.7,N
1523063735.8,286046998.3,N
1523063755.7,286046998.1,N
1523063775.5,286047000.3,N
1523063795.3,286047000.4,N
1523063815.2,286047004.3,Y
1523063835.0,286047002.9,P
1523063835.9,286047002.9,N
1523063855.8,286047003.9,N
1523063875.6,286047004.3,N
1523063895.4,286047003.7,N
1523063915.3,286047003.1,N
1523063935.1,286047004.1,N
1523063955.8,286047001.8,N
1523063975.7,286047000.0,N
1523063995.5,286047002.0,N
1523064015.4,286047002.3,N
1523064035.2,286047000.7,N
1523064055.0,286047000.0,N
1523064055.9,286047000.0,N
1523064075.8,286047002.5,N
1523064095.6,286047004.3,N
1523064115.4,286047002.0,N
1523064135.3,286047004.2,N
1523064155.1,286047011.9,Y
1523064175.9,286047000.3,P
1523064195.7,286047002.7,N
1523064215.5,286046999.9,N
1523064235.4,286047002.8,N
1523064255.2,286047001.4,N
1523064275.1,286047000.1,N
1523064276.0,286047000.1,N
1523064295.8,286047000.6,N
1523064315.6,286047000.6,N
1523064335.5,286047002.2,N
1523064355.3,286047001.6,N
1523064375.1,286047000.4,N
1523064395.9,286046998.7,N
1523064415.7,286046996.7,N
1523064435.6,286047000.7,N
1523064455.4,286047000.9,N
1523064475.2,286047000.3,N
1523064495.1,286046998.4,N
1523064496.0,286046998.4,N
1523064515.8,286046999.2,N
1523064535.6,286047001.2,N
1523064555.5,286047000.5,N
1523064575.3,286047000.1,N
1523064595.2,286046998.5,N
1523064615.9,286047000.7,N
1523064635.7,286046998.5,N
1523064655.6,286046998.5,N
1523064675.4,286047000.5,N
1523064695.2,286047000.9,N
1523064715.1,286047000.4,N
1523064716.0,286047000.4,N
1523064735.8,286046999.1,N
1523064755.7,286046999.6,N
1523064775.5,286047000.8,N
1523064795.3,286047000.1,N
1523064815.2,286047001.6,N
1523064835.0,286047001.0,N
1523064835.9,286047001.0,N
1523064855.8,286047001.5,N
1523064875.6,286047000.2,N
1523064895.4,286046998.6,N
1523064915.3,286047001.2,N
1523064935.1,286046999.5,N
1523064955.9,286047001.2,N
1523064975.7,286046998.8,N
1523064995.5,286046999.7,N
1523065015.4,286047002.7,N
1523065035.2,286047001.7,N
1523065055.1,286047003.5,Y
1523065056.0,286047003.5,P
1523065075.8,286047002.2,N
1523065095.6,286047002.1,N
1523065115.5,286047003.3,N
1523065135.3,286046999.7,N
1523065155.1,286046998.4,N
1523065175.9,286046998.6,N
1523065195.7,286047001.2,N
1523065215.6,286046999.7,N
1523065235.4,286047000.7,N
1523065255.2,286046998.6,N
1523065275.1,286046998.8,N
1523065276.0,286046998.8,N
1523065295.8,286046996.7,N
1523065315.7,286046999.3,N
1523065335.5,286046997.4,N
1523065355.3,286046997.4,N
1523065375.2,286046996.5,N
1523065395.0,286046998.1,N
1523065395.9,286046998.1,N
1523065415.7,286046998.4,N
1523065435.6,286046998.2,N
1523065455.4,286047000.8,N
1523065475.3,286046998.7,N
1523065495.1,286046996.5,N
1523065515.8,286046999.1,N
1523065535.7,286046998.4,N
1523065555.5,286046997.7,N
1523065575.4,286046997.0,N
1523065595.2,286046995.1,N
1523065615.0,286046998.4,N
1523065615.9,286046998.4,N
1523065635.8,286047001.1,N
1523065655.6,286046998.1,N
1523065675.5,286046998.3,N
1523065695.3,286046999.2,N
1523065715.1,286046998.4,N
1523065735.9,286046997.5,N
1523065755.7,286046997.6,N
1523065775.5,286046997.6,N
1523065795.4,286046997.3,N
1523065815.2,286046997.7,N
1523065835.1,286046999.6,N
1523065836.0,286046999.6,N
1523065855.8,286046998.6,N
1523065875.6,286046999.3,N
1523065895.5,286046998.8,N
1523065915.3,286046998.1,N
1523065935.1,286046998.5,N
1523065955.9,286046999.0,N
1523065975.7,286046998.5,N
1523065995.6,286047000.7,N
1523066015.4,286047002.8,N
1523066035.2,286047002.7,N
1523066055.1,286047002.7,N
1523066056.0,286047002.7,N
1523066075.8,286047000.5,N
1523066095.6,286047001.0,N
1523066115.5,286047000.7,N
1523066135.3,286046998.8,N
1523066155.2,286046998.9,N
1523066175.0,286047001.1,N
1523066175.9,286047001.1,N
1523066195.7,286047000.9,N
1523066215.6,286047000.1,N
1523066235.4,286047000.3,N
1523066255.3,286046999.7,N
1523066275.1,286047000.6,N
1523066276.0,286047000.6,N
1523066295.8,286046998.5,N
1523066315.7,286046999.8,N
1523066335.5,286047000.1,N
1523066355.3,286047002.8,N
1523066375.2,286047000.4,N
1523066395.0,286046998.8,N
1523066395.9,286046998.8,N
